GFSFLT1_700_rhum_024.txt.gz
RH
46 40 24 26 31 34 38 44 51 60 66 68 63 66 51 44 41 36 35 38 40 39 41 43 48 54 54 50 52 45 45 48
41 36 32 26 30 36 41 46 47 50 53 61 66 70 69 51 41 38 37 40 42 45 47 50 53 53 55 58 60 64 73 70
32 32 34 35 34 37 40 44 45 52 59 66 71 76 74 66 48 40 40 42 43 45 48 51 57 60 63 68 72 73 80 72
32 33 32 33 34 35 40 44 50 56 62 65 69 70 72 75 68 42 43 45 46 49 53 58 63 66 69 73 76 81 90 88
44 46 45 46 52 45 45 50 57 65 74 76 75 79 87 90 90 46 46 49 52 56 60 63 65 68 72 73 78 97 81 92
50 49 49 54 59 66 64 62 70 78 82 80 74 82 86 97 95 63 49 52 55 59 62 62 64 68 74 88 96 98 93 94
45 54 54 54 63 64 70 74 72 83 89 84 84 82 88 95 85 84 69 63 65 66 66 67 67 73 91 97 98 96 95 84
40 44 47 51 54 54 65 76 75 80 94 90 84 82 98 99 75 76 80 74 67 64 68 86 100 96 96 98 99 98 89 94
36 37 41 52 60 61 66 73 74 80 95 88 80 83 84 93 98 76 74 71 76 78 96 92 82 95 88 98 99 100 96 93
38 39 44 52 55 61 63 73 75 81 78 74 73 74 76 81 83 93 78 73 80 99 90 98 96 95 99 94 100 99 98 89
36 37 40 47 61 71 67 70 61 78 83 71 61 60 65 70 68 70 76 82 97 98 99 99 99 100 100 100 99 96 88 71
31 37 42 35 33 39 29 33 38 49 62 66 63 62 66 71 82 83 91 95 99 99 100 98 99 100 100 100 99 92 73 72
24 30 18 22 34 53 57 55 52 65 63 64 70 76 82 85 94 99 99 100 99 100 100 99 99 100 100 100 97 79 71 76
15 20 22 25 49 59 69 70 71 71 73 64 68 76 89 98 99 99 100 99 100 99 97 98 98 100 100 96 93 86 83 76
23 24 25 38 54 64 70 64 53 45 54 59 68 79 84 88 93 100 100 97 99 98 98 97 98 96 98 95 92 92 79 52
27 26 30 35 55 50 52 52 48 45 57 73 85 91 90 88 99 100 98 97 96 99 97 95 97 98 95 94 89 84 68 53
32 31 34 36 46 52 54 42 36 31 31 39 72 92 77 72 84 99 100 100 100 98 93 94 99 95 92 94 88 74 57 52
37 40 40 37 33 29 30 31 29 29 32 37 42 46 61 74 94 97 99 99 99 98 98 97 96 95 97 95 85 65 48 24
42 35 29 27 27 26 26 30 38 42 43 45 49 60 82 96 99 99 99 98 96 99 99 96 95 98 96 96 90 49 22 19

GFSFLT1_700_rhum_027.txt.gz
RH
33 20 32 35 37 38 41 45 52 56 60 61 55 50 41 51 54 44 36 39 39 39 38 38 40 46 51 56 61 63 67 71
32 21 26 32 35 36 42 48 54 56 56 53 54 60 59 59 53 44 38 39 40 38 39 42 46 52 58 62 64 66 70 73
31 25 26 29 31 36 40 44 47 53 59 67 68 70 73 78 68 50 41 40 42 42 44 48 52 57 61 65 68 67 71 83
31 31 32 32 33 36 41 45 49 54 61 66 67 69 73 71 77 86 55 42 43 46 49 52 56 61 64 67 70 76 83 90
33 37 35 42 41 38 41 44 49 54 60 66 72 82 80 84 90 94 96 61 46 47 50 54 58 61 64 74 82 94 92 97
42 42 47 48 51 56 49 48 53 60 68 75 86 88 80 89 97 99 100 98 56 50 53 57 65 75 91 98 99 98 98 100
46 52 51 50 53 57 64 66 68 68 73 84 83 84 84 88 97 98 97 93 88 74 69 67 80 89 95 86 86 89 97 92
35 40 44 53 54 56 64 66 68 75 77 75 76 84 82 80 90 88 98 84 89 91 96 93 87 98 100 92 69 85 88 80
32 34 40 45 54 62 61 63 68 73 80 86 83 80 83 87 92 90 88 96 92 93 94 83 74 95 97 98 86 97 82 76
30 34 36 40 44 55 64 68 72 77 80 79 80 80 79 74 72 70 80 98 94 84 79 80 94 97 98 91 93 98 87 91
27 35 35 45 48 57 65 72 70 74 82 81 86 72 76 82 80 81 80 84 94 99 94 86 97 84 82 81 87 96 98 94
25 29 41 44 38 52 54 55 40 34 47 62 62 72 73 74 78 81 89 97 99 99 96 98 85 83 98 79 98 98 99 88
17 19 33 15 12 16 19 30 47 57 67 67 69 70 71 75 85 99 98 99 99 100 100 79 80 99 80 99 94 98 95 91
16 17 20 22 25 35 62 72 72 74 67 58 62 66 67 74 81 97 100 98 80 100 100 97 99 87 90 87 99 95 91 81
24 20 24 26 42 49 66 65 64 64 63 61 52 49 64 75 82 93 88 94 98 100 96 100 98 100 100 99 96 95 79 87
26 27 26 26 29 39 51 42 40 43 45 42 35 36 37 59 89 88 86 99 98 99 99 100 100 98 98 97 95 86 87 98
26 28 30 29 30 33 43 44 37 39 37 36 31 27 32 42 80 69 90 100 100 100 81 98 100 92 96 96 97 96 100 99
29 32 35 37 39 37 36 30 27 26 26 29 40 43 44 48 60 87 100 100 92 100 94 98 100 98 95 96 98 95 99 91
39 42 44 40 33 29 28 25 24 32 42 44 42 43 48 61 88 99 99 90 95 98 99 98 96 97 96 96 96 96 84 66

GFSFLT1_700_rhum_030.txt.gz
RH
28 29 30 32 30 29 27 24 30 31 30 24 33 41 55 62 59 58 49 38 38 36 36 36 36 39 44 51 54 60 65 68
24 32 33 35 37 39 41 42 44 56 54 50 48 49 53 57 55 54 43 38 40 40 40 40 41 45 50 55 59 63 66 68
19 27 31 34 38 42 47 51 54 56 57 60 60 61 58 54 60 56 49 42 39 42 41 43 45 48 52 56 60 64 68 71
25 23 26 30 32 36 41 46 50 55 59 63 62 61 63 67 69 73 87 75 45 41 44 45 48 51 54 60 62 69 93 96
31 30 30 30 32 34 39 42 46 50 56 60 64 68 71 77 80 86 94 94 83 48 44 45 47 49 52 58 82 99 99 80
33 35 32 34 36 36 38 41 44 49 52 56 62 69 77 85 85 87 92 93 93 98 84 58 51 54 65 90 99 99 95 68
39 40 40 41 43 50 50 46 46 50 56 63 71 78 82 90 84 86 92 95 99 100 99 96 71 88 95 94 100 99 98 85
43 46 47 46 48 50 53 60 63 66 71 76 79 82 91 89 87 86 92 94 90 97 99 99 100 100 99 97 100 99 85 93
30 35 42 48 52 55 55 56 60 66 71 75 79 85 91 92 92 93 100 99 99 97 99 97 96 99 98 97 99 82 96 80
28 31 34 40 49 54 62 66 68 79 72 74 82 87 91 89 83 84 73 91 93 83 97 100 100 100 99 100 92 100 90 90
23 29 33 35 36 42 52 66 71 74 77 75 82 90 71 70 96 92 98 98 96 86 84 96 99 98 99 96 88 98 92 96
14 22 32 36 39 46 51 54 62 68 73 72 74 57 52 64 80 88 87 92 96 95 100 99 98 99 92 80 100 86 93 100
21 18 16 34 41 36 35 52 58 64 51 36 34 52 62 63 71 74 76 83 92 100 99 95 98 98 81 94 92 91 89 96
25 14 17 20 17 15 18 27 27 34 47 61 69 66 62 68 82 60 66 73 79 92 99 93 100 97 83 85 97 98 98 96
27 22 21 23 24 26 30 44 61 68 60 60 59 51 51 56 54 57 70 89 98 98 98 94 91 100 80 96 93 98 98 96
26 27 26 27 27 32 46 51 55 60 51 41 46 54 50 41 36 28 39 76 100 100 99 84 99 87 98 99 98 96 94 96
27 26 26 28 30 37 43 45 48 54 51 38 34 30 29 25 31 38 40 63 84 66 90 93 99 93 89 97 93 96 97 94
30 28 28 29 33 35 37 38 38 34 28 27 24 24 34 41 43 47 53 67 82 95 91 99 100 99 92 96 96 96 92 92
31 34 37 40 42 43 38 32 30 27 22 24 30 33 33 35 40 49 59 74 97 88 95 94 90 95 93 95 94 92 88 84

GFSFLT1_700_rhum_033.txt.gz
RH
80 33 26 28 35 40 56 77 76 76 73 62 31 28 36 51 59 67 75 60 40 36 34 33 36 38 39 44 49 55 59 61
27 45 30 28 26 25 22 22 46 56 54 22 22 30 38 60 71 72 50 44 40 39 38 37 39 40 42 46 51 55 59 63
24 31 36 39 39 40 36 34 47 58 50 37 38 42 49 64 69 65 55 48 43 40 42 41 40 42 45 47 51 55 61 64
19 27 30 36 40 42 45 48 48 51 60 55 51 51 51 52 52 59 57 62 69 54 43 41 42 44 45 48 53 57 58 82
68 19 24 29 33 38 43 47 49 51 53 54 54 56 59 63 68 74 78 83 87 90 94 64 46 47 46 47 49 50 60 97
70 32 28 29 30 33 36 40 43 47 50 55 57 61 63 66 68 74 80 78 87 91 99 99 99 98 73 54 52 57 75 99
59 66 45 29 31 33 33 36 40 42 47 50 53 57 61 65 74 81 85 88 90 95 97 99 100 98 95 99 75 77 94 99
58 59 67 71 40 45 44 40 39 41 44 49 55 63 67 73 78 89 89 87 83 88 98 98 100 100 99 98 99 99 99 99
60 60 64 70 51 45 49 53 55 57 68 65 72 78 86 84 87 94 91 85 98 99 94 86 99 98 100 100 99 99 99 99
56 58 65 74 81 91 49 49 51 57 60 66 83 83 79 87 91 84 77 69 69 84 96 90 92 92 99 100 100 97 99 97
39 48 64 71 81 89 74 49 59 65 70 80 88 85 83 89 92 76 55 53 74 88 88 92 95 100 99 99 99 94 90 73
16 20 29 46 76 82 84 41 49 64 71 73 74 80 79 78 61 55 60 69 77 79 84 89 88 100 99 99 93 100 92 98
26 23 20 18 35 39 42 46 48 51 54 66 69 72 64 37 56 66 59 60 75 76 73 77 82 95 91 99 99 100 98 94
28 25 20 20 35 44 44 35 40 58 64 68 71 36 46 68 68 55 53 52 57 59 64 79 92 90 100 98 95 86 100 98
43 30 25 31 28 18 18 18 20 30 29 39 50 58 57 54 53 52 68 64 53 50 75 98 96 97 98 100 99 98 96 95
32 32 30 24 24 24 26 26 29 44 65 70 62 56 51 52 60 46 37 28 30 40 81 100 99 100 97 96 97 99 94 99
29 32 26 28 26 31 36 41 52 56 55 50 53 58 50 32 28 25 29 40 43 47 60 79 80 91 100 100 91 88 86 96
35 31 29 28 29 39 47 46 45 47 50 52 41 30 27 22 25 32 34 36 41 50 65 76 91 93 98 92 92 83 90 86
33 35 32 33 35 38 44 43 41 38 33 30 28 21 22 26 26 30 35 41 49 61 73 85 72 72 74 60 56 74 58 35

GFSFLT1_700_rhum_039.txt.gz
RH
31 28 29 27 27 30 40 54 70 85 96 100 100 74 78 75 78 69 66 58 45 45 57 51 37 39 39 35 36 38 42 48
24 24 38 32 37 44 34 31 36 48 48 58 68 63 64 59 51 48 43 44 50 62 64 42 37 38 38 38 38 40 42 47
20 24 29 30 32 41 48 48 48 39 42 40 46 42 38 43 43 50 51 60 64 69 60 42 45 44 42 42 42 42 44 46
19 28 31 34 35 35 37 46 53 48 30 32 35 35 39 39 39 64 93 75 72 60 59 49 48 48 49 47 51 52 48 50
28 20 25 32 32 33 35 36 36 42 38 38 37 35 36 39 45 56 65 69 76 76 72 69 74 84 87 89 83 83 99 85
27 15 18 28 33 32 33 35 35 37 37 39 39 39 42 42 44 48 61 59 63 66 79 84 82 81 81 75 99 100 100 99
36 22 18 22 28 32 33 35 37 38 40 41 42 44 47 50 53 56 61 68 73 86 82 84 89 88 83 83 93 99 98 98
34 29 20 23 23 23 28 29 30 35 38 40 40 46 53 58 60 60 61 68 85 96 95 90 83 87 82 84 97 96 95 99
43 38 31 28 21 22 24 26 27 30 33 34 39 41 46 51 51 52 62 82 79 80 97 92 81 74 79 88 90 89 99 97
51 53 53 48 45 46 32 27 29 32 35 36 40 38 44 46 56 69 80 80 82 99 97 86 78 76 80 85 79 88 91 98
46 58 52 56 52 56 57 59 60 50 52 50 48 52 53 57 63 84 90 91 89 78 91 82 78 69 77 80 80 83 89 100
49 52 58 60 62 65 62 60 66 52 60 59 73 74 68 57 69 96 100 100 98 74 73 73 66 64 65 72 86 90 99 99
30 36 45 49 56 66 74 69 69 70 58 52 81 81 92 98 94 100 100 57 65 58 65 67 67 62 73 82 92 100 100 82
28 26 25 25 29 48 61 63 70 71 61 61 89 88 80 67 67 84 78 55 56 55 57 58 59 69 65 39 42 46 98 80
30 31 26 21 23 24 22 42 55 58 70 68 58 47 42 53 60 54 53 62 60 56 56 58 39 26 28 39 37 96 73 100
36 35 33 23 20 26 24 21 25 46 53 43 26 32 36 40 47 49 56 58 56 63 41 25 21 26 33 42 60 96 91 97
39 39 33 33 26 21 30 28 24 20 21 27 28 29 39 48 49 56 54 59 51 29 20 22 27 34 44 59 70 76 93 90
36 38 30 19 21 29 31 32 27 26 22 26 31 39 49 52 57 58 52 33 25 19 25 31 35 42 49 56 57 72 56 46
34 35 28 30 23 31 30 32 31 29 32 33 43 48 54 52 44 37 32 21 22 27 28 32 38 43 44 40 32 30 24 19

GFSFLT1_700_rhum_042.txt.gz
RH
18 27 29 32 39 64 94 98 100 98 100 92 99 100 100 100 88 98 81 74 73 64 52 43 52 45 35 30 30 32 35 39
16 26 30 34 37 29 39 58 75 95 97 89 98 98 100 98 97 98 81 70 66 56 42 48 46 38 36 35 38 41 40 41
18 26 30 32 39 40 34 31 33 43 57 76 81 66 62 62 62 72 66 70 47 46 45 49 41 42 40 42 42 43 43 43
19 24 30 29 31 34 38 37 30 29 29 38 40 46 47 48 45 44 53 42 43 51 61 53 46 44 44 45 54 68 75 72
36 22 22 29 30 32 31 38 32 29 30 31 32 34 34 38 43 48 56 55 67 65 65 58 59 56 62 79 85 87 96 100
46 18 20 31 29 31 34 35 42 36 36 35 35 34 36 38 41 49 64 81 69 69 71 74 76 75 80 89 92 90 94 92
30 42 28 21 32 32 34 36 38 41 41 40 39 38 37 38 40 44 49 55 59 62 65 76 84 89 91 93 94 91 89 98
42 31 24 19 22 29 32 33 35 38 39 39 40 42 43 43 45 48 50 54 60 66 80 98 98 97 90 88 84 86 92 97
37 32 30 24 21 24 27 28 29 29 32 34 36 38 44 51 54 57 60 60 64 81 98 99 87 96 89 85 72 75 84 85
32 34 41 43 38 24 23 26 27 27 27 30 32 35 36 38 43 52 66 71 82 90 96 96 96 98 97 80 79 81 83 75
36 37 42 49 50 52 51 44 46 49 42 32 33 34 34 35 38 45 62 78 92 99 99 95 78 91 76 74 74 86 81 86
31 35 41 48 56 59 54 54 59 62 61 53 58 62 69 67 52 61 91 94 100 96 80 87 89 79 80 82 84 79 86 97
34 34 46 52 56 62 61 66 56 55 61 69 82 77 75 81 90 99 78 100 99 48 59 62 53 64 77 72 75 86 97 100
28 28 29 29 31 48 51 54 44 50 58 68 82 90 68 78 76 84 73 86 99 56 53 50 56 67 66 76 79 84 78 46
29 29 29 29 29 28 26 25 24 41 50 51 63 66 61 62 55 55 74 60 75 68 65 62 64 71 74 57 31 30 36 41
33 31 30 32 31 21 20 24 21 24 26 30 50 58 44 48 50 56 48 54 57 59 70 72 73 50 28 24 26 32 39 44
35 33 34 35 36 35 31 17 22 31 28 38 56 58 52 53 51 51 53 60 66 70 68 52 28 22 21 27 32 39 48 86
33 35 34 33 37 36 29 26 22 30 36 38 41 43 48 48 52 53 57 64 65 58 34 26 21 26 30 35 42 52 70 57
31 32 33 37 36 31 31 31 32 30 39 44 45 42 42 44 52 60 69 50 33 28 23 24 29 32 38 42 44 43 38 35